Probability
0 0 0 0 0 0 0 0 0 0 0 0 0 0 0 0 0 0 0 0 0 0 0 0 0 0 0 0 0 0 0 0 0 0 0 0 0 0 0 0 0 0 0
0 0 0 0 0 0 0 0 0 0 0 0 0 0 0 0 0 0 0 0 0 0 0 0 0 0 0 0 0 0 0 0 0 0 0 0 0 0 0 0 0 0 0
0 0 0 0 0 0 0 0 0 0 0 0 0 0 0 0 0 0 0 0 0 0 0 0 0 0 0 0 0 0 0 0 0 0 0 0 0 0 0 0 0 0 0
0 0 0 0 0 0 0 0 0 0 0 0 0 0 0 0 0 0 0 0 0 0 0 0 0 0 0 0 0 0 0 0 0 0 0 0 0 0 0 0 0 0 0
0 0 0 1 1 1 1 1 0 0 0 0 0 0 0 0 0 0 0 0 0 0 0 0 0 0 0 0 0 0 0 0 0 0 0 0 0 0 0 0 0 0 0
0 0 2 4 3 2 2 2 1 1 0 0 0 0 0 0 0 0 0 0 0 0 0 0 0 0 0 0 0 0 0 0 0 0 0 0 0 0 0 0 0 0 0
0 1 3 6 6 5 5 3 2 1 0 0 0 0 0 0 0 0 0 0 0 0 0 0 0 0 0 0 0 0 0 0 0 0 0 0 0 0 0 0 0 0 0
0 1 5 10 16 21 20 14 10 7 7 6 4 1 0 0 0 0 0 0 0 0 0 0 0 0 0 0 0 0 0 0 0 0 0 0 0 0 0 0 0 0 0
9 12 14 18 31 44 47 41 36 34 32 26 14 5 1 0 0 0 0 0 0 0 0 0 0 0 0 0 0 0 0 0 0 0 0 0 0 0 0 0 0 0 0
38 39 39 36 41 53 58 59 63 66 64 49 25 7 1 0 0 0 0 0 0 0 0 0 0 0 0 0 0 0 0 0 0 0 0 0 0 0 1 1 0 0 0
71 68 62 52 45 47 49 54 64 72 71 52 25 7 2 0 0 0 0 0 0 0 0 0 0 0 2 2 1 0 1 1 0 0 0 0 0 1 5 7 4 1 0
88 78 63 53 50 45 41 44 53 58 54 37 17 6 3 1 0 0 0 0 0 0 0 0 0 2 6 8 5 2 2 2 1 0 0 0 0 2 11 19 15 7 2
91 74 51 45 48 42 34 38 46 43 32 19 9 5 4 2 1 0 0 0 0 0 0 0 1 4 9 10 7 4 3 2 1 0 0 0 0 2 13 27 26 14 7
89 69 43 32 30 25 21 26 32 26 15 7 3 3 4 2 1 0 0 0 1 0 0 1 1 3 5 5 4 2 1 1 1 0 0 0 0 1 8 19 25 18 13
77 63 38 19 12 10 14 24 31 24 12 4 2 4 8 5 1 0 0 0 0 0 0 0 0 0 0 1 1 0 0 0 1 1 1 0 0 0 3 8 16 19 17
54 49 35 20 16 19 29 43 52 45 30 16 6 6 12 8 2 0 0 0 0 0 0 0 0 0 0 0 0 0 0 0 0 0 0 0 0 0 1 3 9 16 20
34 33 29 27 32 41 50 58 61 57 45 26 9 5 8 6 1 0 0 0 0 0 0 0 0 0 0 0 0 0 0 0 0 0 0 0 0 0 0 2 6 14 21
24 23 23 26 34 44 46 42 41 41 34 19 7 3 3 2 0 0 0 0 0 0 0 0 0 0 0 0 0 0 0 0 0 0 0 0 0 0 0 2 5 12 20
17 19 19 19 21 24 23 17 15 15 12 6 3 3 3 1 0 0 0 0 0 0 0 0 0 0 0 0 0 0 0 0 0 0 0 0 0 0 0 1 3 7 11
12 14 15 13 9 7 6 4 2 2 2 1 1 3 3 1 0 0 0 0 0 0 0 0 0 0 0 0 0 0 0 0 0 0 0 0 0 1 1 1 1 3 3
9 10 10 7 4 2 1 1 0 0 0 0 0 1 1 1 0 0 0 0 0 0 0 0 0 0 0 0 0 0 0 0 0 0 0 0 1 1 2 2 3 2 1
7 7 6 4 2 1 0 0 0 0 0 0 0 0 0 0 0 0 0 0 0 0 0 0 0 0 0 0 0 0 0 0 0 0 0 0 0 1 2 3 4 4 4
4 3 2 1 1 0 0 0 0 0 0 0 0 0 0 0 0 0 0 0 0 0 0 0 0 0 0 0 0 0 0 0 0 0 0 0 0 0 0 2 3 4 4
1 0 0 0 0 0 0 0 0 0 0 0 0 0 0 0 0 0 0 0 0 0 0 0 0 0 0 0 0 0 0 0 0 0 0 0 0 0 0 0 1 1 2
0 0 0 0 0 0 0 0 0 0 0 1 1 0 0 0 0 0 0 0 0 0 0 0 0 0 0 0 0 0 0 0 0 0 0 0 0 0 0 0 0 0 0
0 0 0 0 0 0 0 0 0 0 1 2 2 1 0 0 0 0 0 0 0 0 0 0 0 0 0 0 0 0 0 0 0 0 0 0 0 0 0 0 0 0 0
Wind_Speed
10 10 17 19 20 18 17 17 16 14 14 13 13 13 12 13 13 12 12 12 12 11 11 12 13 12 12 12 12 13 12 12 12 12 12 13 13 12 12 12 13 10 14
15 13 18 19 21 20 18 18 17 16 14 13 13 12 12 12 12 11 11 11 12 11 11 11 12 12 12 12 11 12 11 11 11 10 11 11 11 10 8 9 12 8 13
18 14 17 20 21 21 20 18 18 17 16 14 13 13 13 12 12 12 11 11 12 12 11 9 10 10 10 10 10 10 9 9 9 10 9 5 5 8 9 12 13 13 12
18 13 14 21 21 22 21 20 19 18 17 16 15 14 14 13 12 12 11 11 11 11 11 10 9 9 9 8 8 9 9 8 8 8 5 5 4 8 10 13 13 13 13
13 10 15 23 22 22 21 21 20 19 18 18 17 16 15 14 13 13 12 12 12 12 11 11 11 10 10 9 8 7 8 9 8 6 4 4 3 9 11 12 12 12 12
13 11 15 22 22 21 21 20 20 19 19 18 17 16 16 15 14 14 13 13 12 12 12 11 10 10 10 10 9 8 7 8 6 3 3 4 5 12 13 12 12 12 13
14 11 14 20 20 20 20 20 19 19 19 18 17 16 15 15 14 13 13 12 11 11 10 10 10 10 10 10 10 9 9 9 5 3 3 4 6 13 15 14 13 13 12
16 13 12 20 21 21 21 21 20 20 19 19 18 17 16 15 14 13 13 12 11 11 11 11 12 12 13 13 12 12 11 10 7 5 5 5 9 14 16 15 13 14 13
15 13 11 13 17 22 22 21 20 20 19 18 17 17 16 16 15 14 13 14 14 13 13 13 12 11 12 13 14 14 13 13 6 3 5 4 10 16 17 16 15 15 16
15 14 12 10 10 10 12 18 18 17 16 16 16 16 16 15 14 15 13 14 15 15 15 15 15 14 13 13 14 14 14 12 6 5 4 5 12 18 19 18 17 16 16
15 14 12 10 8 8 7 11 14 15 15 15 14 17 14 7 6 8 12 15 16 17 17 17 17 16 14 14 15 14 12 5 5 5 5 9 11 16 20 19 19 18 18
18 16 13 12 10 8 8 6 5 6 6 7 6 7 5 4 5 8 10 17 18 18 17 17 17 15 12 6 10 13 5 6 6 5 6 12 13 15 19 19 20 20 20
15 14 13 12 10 9 6 5 4 3 3 4 5 6 4 4 4 6 4 7 11 13 8 9 10 7 7 6 6 6 7 6 5 6 8 15 14 15 18 21 21 20 20
10 10 10 10 10 10 7 5 4 3 3 4 6 7 5 4 5 5 4 4 4 4 5 4 3 5 8 9 9 7 6 5 6 5 8 17 16 17 19 21 22 21 19
5 1 2 5 7 7 5 3 4 4 5 6 6 7 8 6 5 4 3 3 4 3 3 3 4 3 3 2 3 4 4 4 5 5 6 16 18 17 17 20 22 22 21
17 14 11 7 5 2 3 4 5 5 4 4 5 7 8 5 4 4 3 3 2 3 3 3 4 3 3 3 3 4 4 4 5 6 6 9 15 15 16 19 21 22 21
13 13 13 12 8 1 1 4 4 4 3 3 4 4 5 5 4 4 3 2 2 3 3 3 3 2 2 2 3 4 4 5 6 6 6 5 6 11 15 17 19 21 21
11 4 8 12 9 5 3 4 3 3 3 3 3 3 4 5 4 3 2 1 2 2 2 2 2 1 1 2 2 3 4 4 7 7 6 6 6 6 9 15 17 19 21
14 11 4 2 4 6 8 7 4 2 3 3 3 3 4 5 4 3 3 2 2 1 1 1 1 1 2 2 3 4 4 5 7 8 8 9 8 7 6 9 15 19 22
11 11 10 7 5 10 9 5 3 2 2 3 3 4 6 4 5 4 3 2 1 1 1 1 0 1 2 2 3 3 4 5 6 6 8 8 8 9 9 8 8 10 19
7 7 8 10 11 11 6 4 3 3 3 2 3 5 6 6 6 5 3 2 3 3 2 1 1 1 1 1 0 3 4 5 6 5 5 6 8 9 8 8 7 7 7
7 5 3 3 5 5 4 4 3 3 2 2 2 4 6 6 6 5 5 4 3 2 1 0 1 1 0 1 2 1 3 5 4 3 3 4 5 5 7 8 8 8 7
10 8 6 6 4 4 4 2 1 1 0 0 2 3 5 5 5 5 6 5 4 3 2 1 0 1 1 0 1 2 1 2 4 4 3 4 3 3 4 5 7 8 7
9 7 7 6 6 6 5 4 3 1 2 4 3 4 4 6 6 6 6 6 5 3 3 2 2 2 2 1 1 1 3 3 2 4 4 4 5 5 5 4 5 7 7
5 5 4 5 5 5 5 5 4 3 2 3 2 3 3 4 5 5 7 6 5 4 4 3 2 2 2 2 2 2 2 2 3 3 5 5 5 4 4 5 5 5 7
3 3 3 4 3 4 5 6 6 6 6 6 5 4 3 2 2 3 5 6 6 5 5 4 4 3 3 3 3 3 3 2 2 2 4 4 5 4 5 4 4 4 5
Wind_Direction
157 165 159 158 157 155 150 142 139 136 131 125 122 121 119 118 119 119 123 128 131 127 127 127 122 122 126 123 121 122 122 120 119 120 120 118 118 122 124 117 114 110 108
155 163 160 160 159 158 156 149 144 142 139 137 137 135 132 130 126 124 126 131 136 134 125 125 125 122 127 129 127 126 126 126 128 127 122 120 120 120 123 130 126 125 120
151 161 160 159 160 160 159 154 150 149 148 149 149 147 143 141 139 137 134 133 137 138 134 131 130 133 133 135 136 132 130 129 132 136 127 119 127 126 120 130 134 133 129
149 156 159 159 161 163 162 159 157 156 156 157 158 157 154 152 149 148 147 145 144 145 148 149 149 147 148 148 147 147 149 148 150 153 147 158 163 147 136 137 143 143 140
147 155 162 160 164 166 166 164 163 162 163 165 165 164 163 162 160 158 159 160 159 159 160 162 163 163 165 165 165 165 162 165 176 177 167 167 178 169 158 151 153 152 150
153 160 165 164 166 169 169 168 169 169 170 171 171 170 170 171 173 171 171 172 173 171 170 172 174 175 177 179 180 184 186 186 190 204 209 199 185 184 173 166 165 164 164
157 165 167 165 167 169 171 174 176 175 175 176 176 177 178 181 183 181 181 183 185 184 183 185 189 190 192 195 195 197 204 210 203 209 224 222 194 189 181 177 176 175 175
160 167 170 169 169 172 176 180 182 183 182 181 181 183 185 186 189 190 191 192 196 199 200 202 206 208 205 205 207 208 212 221 222 215 217 210 202 197 188 185 182 177 175
161 169 175 176 176 177 180 184 186 187 187 186 187 189 192 193 195 198 199 200 203 208 212 214 216 216 210 210 214 215 217 223 231 231 235 207 205 201 192 192 190 185 183
165 173 179 181 180 179 182 188 189 190 190 190 194 196 199 201 202 205 206 212 212 214 218 221 222 222 219 218 221 222 224 228 232 238 246 233 214 205 198 194 197 197 195
172 176 177 178 179 178 182 194 193 195 196 196 200 204 204 207 209 213 217 219 224 224 224 225 225 225 224 227 230 230 230 227 223 232 241 250 243 218 208 201 200 201 203
178 178 177 180 182 180 189 188 189 195 198 200 203 209 203 192 207 219 225 228 231 233 234 235 234 231 229 226 234 235 229 222 224 230 238 246 252 236 219 211 207 205 206
177 175 178 178 179 183 193 183 187 193 196 205 209 211 199 193 211 225 224 240 238 238 236 239 236 227 223 214 219 224 225 223 224 227 233 242 249 245 228 217 214 214 212
170 180 178 178 181 190 195 179 177 182 191 203 211 208 199 207 216 218 219 233 232 224 221 223 217 226 230 228 225 225 227 225 225 225 231 237 246 247 239 223 218 219 218
32 15 202 198 195 195 195 170 169 187 198 207 210 209 205 209 218 219 223 223 220 206 198 203 202 220 245 237 230 226 225 233 240 231 238 247 253 251 242 230 223 220 220
24 11 357 321 269 221 179 171 180 191 199 207 217 214 203 195 203 219 226 211 195 177 177 179 185 196 211 202 194 197 216 231 238 240 240 253 261 261 249 239 231 227 224
38 4 352 326 305 306 183 186 182 190 186 199 213 203 185 178 191 199 201 200 190 180 179 177 188 188 202 208 217 220 228 238 244 241 241 243 252 259 254 243 235 230 230
87 6 332 324 324 334 312 273 226 195 194 204 203 193 190 186 178 171 178 216 210 185 185 189 192 197 218 213 225 234 236 246 255 256 255 252 248 252 252 246 239 234 233
139 165 167 277 334 312 286 276 270 239 222 223 202 185 188 191 186 176 194 217 222 208 218 241 230 204 243 251 239 235 235 239 247 253 251 251 249 246 247 253 247 241 239
150 154 150 149 196 237 247 257 261 234 224 208 189 185 181 192 194 189 200 198 165 135 81 72 207 207 229 253 269 269 257 248 244 240 242 246 247 244 238 238 242 248 246
117 125 145 169 197 217 224 220 204 210 217 200 192 186 181 186 184 185 190 169 136 134 149 143 133 121 236 212 318 313 295 268 253 251 242 238 243 244 239 233 229 232 245
74 79 102 176 215 239 245 230 202 196 211 214 202 198 196 188 182 178 176 173 163 153 146 94 113 120 191 122 124 2 328 327 323 292 282 260 256 248 241 234 227 223 225
46 46 50 44 36 4 333 318 346 52 57 195 215 215 214 198 185 175 177 172 176 168 175 188 186 159 191 321 140 155 191 275 303 299 299 300 309 287 253 238 227 219 217
49 49 46 40 26 10 10 23 22 327 251 236 229 223 216 201 191 184 181 179 179 170 175 198 212 194 176 230 281 201 194 196 244 304 305 302 314 309 295 266 243 231 220
45 47 45 44 28 10 14 21 34 18 320 310 312 278 247 227 210 198 191 184 179 174 181 186 191 204 192 200 215 227 226 217 205 226 291 312 319 299 293 276 254 242 228
28 23 26 35 27 14 23 24 32 27 15 14 11 359 341 317 296 261 221 196 183 176 181 192 196 201 216 228 228 220 213 214 206 211 261 294 299 293 297 284 270 256 242